FLOCK 2E'-17

Last updated on June 27, 2018, 12:15 a.m. UTC

1 41776U 98067KN  18177.35537988  .11238463  12459-4  78797-3 0  9991
2 41776  51.6078 275.1051 0007720 296.0310  63.9922 16.40171370101713

Satellite is not in orbit.